Regional Weather Roundup
Issued by NWS

Home | Current Version | Previous Version | Text Only | Print | Product List | Glossary Off
Versions: 1 2 3 4 5 6 7 8 9 10 11 12 13 14 15 16 17 18 19 20 21 22 23 24 25 26 27 28 29 30 31 32 33 34 35 36 37 38 39 40 41 42 43 44 45 46 47 48 49 50

423
ASUS43 KOAX 210302
RWRNE

WEATHER ROUNDUP FOR NEBRASKA
NATIONAL WEATHER SERVICE OMAHA NE
1000 PM CDT FRI OCT 20 2017

NOTES: SATELLITE DATA IS BEING USED TO AUGMENT CLOUD COVER ABOVE
       12000 FEET.
       "FAIR" INDICATES FEW OR NO CLOUDS BELOW 12,000 FEET WITH NO
       SIGNIFICANT WEATHER AND/OR OBSTRUCTIONS TO VISIBILITY.


NEZ001>004-019>022-054>056-210400-
NEBRASKA PANHANDLE

CITY           SKY/WX    TMP DP  RH WIND       PRES   REMARKS
SCOTTSBLUFF    CLEAR     52  41  66 N9        29.46R
ALLIANCE       CLEAR     53  44  71 S12       29.45S
CHADRON        LGT RAIN  68  43  40 S21G29    29.40R
GORDON         FAIR      58  48  67 S7        29.43S
KIMBALL        PTCLDY    55  36  48 S9        29.51S
SIDNEY         CLEAR     54  39  57 SE8       29.48F
$$

NEZ057>060-069>072-079>082-210400-
SOUTHWEST NEBRASKA

CITY           SKY/WX    TMP DP  RH WIND       PRES   REMARKS
NORTH PLATTE   CLEAR     68  55  63 S20G30    29.47F
IMPERIAL       CLEAR     63  51  65 SE13      29.47F
LEXINGTON      PTCLDY    69  56  62 S22G33    29.54F
MCCOOK         CLEAR     68  56  65 S23G37    29.49F
OGALLALA       CLEAR     63  50  63 E6        29.46F
$$

NEZ005>010-023>029-035>040-094-210400-
NORTH CENTRAL NEBRASKA

CITY           SKY/WX    TMP DP  RH WIND       PRES   REMARKS
VALENTINE      CLEAR     68  52  56 S20G25    29.44F
AINSWORTH      CLEAR     65  54  67 S17       29.48S
BROKEN BOW     CLEAR     68  55  63 S20G29    29.53F
O`NEILL        CLEAR     68  58  71 S18G28    29.53F
ORD            CLEAR     68  57  68 S17G33    29.54S
THEDFORD       PTCLDY    67  53  60 S22       29.49S
$$

NEZ041-046>049-061>064-073>077-083>087-210400-
SOUTH CENTRAL NEBRASKA

CITY           SKY/WX    TMP DP  RH WIND       PRES   REMARKS
GRAND ISLAND   PTCLDY    68  59  73 S23G36    29.61S
AURORA         PTCLDY    69  56  64 S22G33    29.63S
HASTINGS       PTCLDY    69  57  65 S17G31    29.63S
HEBRON         PTCLDY    71  57  62 S17G24    29.68S
HOLDREGE       PTCLDY    67  58  72 S17G29    29.58S
KEARNEY        PTCLDY    68  58  70 S24G33    29.58S
YORK           MOCLDY    68  57  68 S22G33    29.65S
$$

NEZ011>018-030>034-042>045-210400-
NORTHEAST NEBRASKA

CITY           SKY/WX    TMP DP  RH WIND       PRES   REMARKS
NORFOLK        MOCLDY    70  57  63 S24G37    29.59R
ALBION         CLOUDY    69  58  66 S22G30    29.60S
BLAIR          CLEAR     69  57  66 S26G37    29.70F
FREMONT        MOCLDY    69  56  65 S21G28    29.69S
TEKAMAH        CLEAR     70  56  61 S22G33    29.67S
WAYNE          CLOUDY    69  58  68 S21G29    29.62R
$$

NEZ050>053-065>068-078-088>093-210400-
SOUTHEAST NEBRASKA

CITY           SKY/WX    TMP DP  RH WIND       PRES   REMARKS
LINCOLN        CLOUDY    68  57  68 S25G35    29.69S
OMAHA EPPLEY   MOCLDY    70  56  61 S25G35    29.72S
BEATRICE       PTCLDY    68  58  71 S16G29    29.72S
FALLS CITY     CLEAR     67  56  67 S15G23    29.78S
NEBRASKA CITY  PTCLDY    66  59  77 S15G21    29.76S
PLATTSMOUTH    CLOUDY    68  58  69 SE17G23   29.75S
$$

NEZ044-045-051>053-067-210400-
OMAHA AREA

CITY           SKY/WX    TMP DP  RH WIND       PRES   REMARKS
OMAHA EPPLEY   MOCLDY    70  56  61 S25G35    29.72S
BLAIR          CLEAR     69  57  66 S26G37    29.70F
FREMONT        MOCLDY    69  56  65 S21G28    29.69S
MILLARD        CLOUDY    70  59  66 S21G29    29.71F
OFFUTT AFB     MOCLDY    68  56  65 SE18      29.73S
PLATTSMOUTH    CLOUDY    68  58  69 SE17G23   29.75S
WAHOO          FAIR      69  56  64 S23G32    29.69S
$$




USA.gov is the U.S. government's official web portal to all federal, state and local government web resources and services.